This demonstration page uses our WeatherBlox Daily Observations layout. Learn more.

Left ArrowRight Arrow

38.89511, -77.03637

Hourly Observations for June 25, 2021

Temp ( °F °C ) Dew Point ( °F °C ) Humidity (%) Winds ( mph kmh ) Pressure ( in mb ) Visibility ( mi km ) Precip ( " mm )
12:52 am 00:52 Mostly Clear 67 19.4 55 12.8 66 66 SE 9 15 30.31 1026 10 16 N/A
1:52 am 01:52 Mostly Clear 66 18.9 56 13.3 70 70 SSE 6 9 30.30 1026 10 16 N/A
2:52 am 02:52 Mostly Clear 64 17.8 56 13.3 75 75 S 3 6 30.28 1025 10 16 N/A
3:52 am 03:52 Mostly Clear 64 17.8 56 13.3 75 75 S 3 6 30.28 1026 10 16 N/A
4:52 am 04:52 Clear 63 17.2 56 13.3 78 78 N N/A 30.29 1026 10 16 N/A
5:52 am 05:52 Partly Cloudy 63 17.2 56 13.3 78 78 SW 3 6 30.31 1026 10 16 N/A
6:52 am 06:52 Partly Cloudy 64 17.8 58 14.4 81 81 N N/A 30.32 1027 10 16 N/A
7:52 am 07:52 Mostly Cloudy 66 18.9 59 15 78 78 N N/A 30.34 1027 10 16 N/A
8:52 am 08:52 Mostly Cloudy 69 20.6 60 15.6 73 73 N N/A 30.33 1027 10 16 N/A
9:52 am 09:52 Partly Cloudy 71 21.7 61 16.1 71 71 SSE 5 7 30.32 1027 10 16 N/A
10:52 am 10:52 Partly Cloudy 73 22.8 59 15 62 62 SSE 7 11 30.32 1027 10 16 N/A
11:52 am 11:52 Partly Cloudy 74 23.3 59 15 60 60 S 7 11 30.30 1026 10 16 N/A
12:52 pm 12:52 Partly Cloudy 76 24.4 58 14.4 54 54 S 5 7 30.29 1026 10 16 N/A
1:52 pm 13:52 Mostly Cloudy 78 25.6 57 13.9 48 48 S 9 15 30.28 1025 10 16 N/A
2:52 pm 14:52 Mostly Cloudy 80 26.7 59 15 49 49 SSE 12 19 30.27 1025 10 16 N/A
3:52 pm 15:52 Mostly Cloudy 80 26.7 59 15 49 49 SSE 10 17 30.26 1025 10 16 N/A
4:52 pm 16:52 Mostly Cloudy 80 26.7 59 15 49 49 S 9 15 30.24 1024 10 16 N/A
5:52 pm 17:52 Mostly Cloudy 80 26.7 61 16.1 52 52 S 12 19 30.24 1024 9 14 N/A
6:52 pm 18:52 Mostly Cloudy 80 26.7 62 16.7 54 54 S 10 17 30.23 1024 10 16 N/A
7:52 pm 19:52 Mostly Cloudy 78 25.6 63 17.2 60 60 S 13 20 30.23 1024 10 16 N/A
8:52 pm 20:52 Partly Cloudy 77 25 64 17.8 64 64 S 12 19 30.22 1023 10 16 N/A
9:52 pm 21:52 Mostly Cloudy 76 24.4 65 18.3 69 69 SSE 9 15 30.22 1023 10 16 N/A
10:52 pm 22:52 Mostly Cloudy 74 23.3 66 18.9 76 76 S 8 13 30.22 1023 10 16 N/A
11:52 pm 23:52 Mostly Cloudy 74 23.3 67 19.4 79 79 SSE 10 17 30.22 1023 10 16 N/A

Powered by AerisWeather